Weather History for Holloman AFB, NM

Change the Weather History Date:

Tuesday, February 12, 2013

  Actual Average Record
Temperature  
Mean Temperature 35 °F -  
Max Temperature 48 °F 57 °F 69 °F (2001)
Min Temperature 22 °F 29 °F 12 °F (1999)
Degree Days  
Heating Degree Days 30    
Moisture  
Dew Point 23 °F    
Average Humidity 67    
Maximum Humidity 100    
Minimum Humidity 20    
Precipitation  
Precipitation 0.00 in - - ()
Sea Level Pressure  
Sea Level Pressure 30.02 in    
Wind  
Wind Speed 9 mph (NNW)    
Max Wind Speed 21 mph    
Max Gust Speed 24 mph    
Visibility 10 miles    
Events Rain , Snow    
Averages and records for this station are not official NWS values.
T = Trace of Precipitation, MM = Missing Value Source: NWS Daily Summary

Daily Weather History Graph

Daily Weather History Graph

Search for Another Location

Airport:

Trip Planner

Search our weather history database for the weather conditions in past years. The results will help you decide how hot, cold, wet, or windy it might be!

Date:

Astronomy

Feb. 12, 2013 Rise Set
Actual Time 6:50 AM MST 5:47 PM MST
Civil Twilight 6:24 AM MST 6:12 PM MST
Nautical Twilight 5:55 AM MST 6:41 PM MST
Astronomical Twilight 5:27 AM MST 7:10 PM MST
Moon 8:00 AM MST (2/12) 8:37 PM MST (2/12)
Length of Visible Light 11h 47m
Length of Day
10h 57m
Waxing Crescent, 8% of the Moon is Illuminated
Feb 12
Waxing Crescent
Feb 17
First Quarter
Feb 25
Full
Mar 4
Last Quarter
Mar 11
New

Hourly Weather History & Observations

Time (MST) Temp. Windchill Dew Point Humidity Pressure Visibility Wind Dir Wind Speed Gust Speed Precip Events Conditions
12:58 AM 39.0 °F 32.3 °F 27.9 °F 64% 29.87 in 10.0 mi West 10.4 mph - N/A   Mostly Cloudy
1:58 AM 37.0 °F 31.0 °F 29.5 °F 74% 29.87 in 10.0 mi NE 8.1 mph - N/A   Mostly Cloudy
2:47 AM 35.6 °F 30.7 °F 30.2 °F 81% 29.95 in 10.0 mi WNW 5.8 mph - N/A Rain Light Rain
2:58 AM 35.6 °F 29.9 °F 29.8 °F 80% 29.88 in 10.0 mi WNW 6.9 mph - 0.00 in Rain Light Rain
3:01 AM 35.6 °F 30.7 °F 30.2 °F 81% 29.94 in 10.0 mi WNW 5.8 mph - N/A   Scattered Clouds
3:58 AM 34.2 °F 27.5 °F 30.4 °F 86% 29.89 in 10.0 mi NW 8.1 mph - 0.00 in   Scattered Clouds
3:59 AM 33.8 °F 25.8 °F 32.0 °F 93% 29.96 in 10.0 mi NW 10.4 mph - N/A Rain Light Rain
4:10 AM 33.8 °F 26.4 °F 32.0 °F 93% 29.96 in 10.0 mi NNW 9.2 mph - N/A   Scattered Clouds
4:25 AM 32.0 °F 25.6 °F 32.0 °F 100% 29.97 in 10.0 mi NNW 6.9 mph - N/A   Mostly Cloudy
4:29 AM 32.0 °F 24.8 °F 32.0 °F 100% 29.97 in 10.0 mi NNW 8.1 mph - N/A Rain Light Rain
4:34 AM 32.0 °F 24.2 °F 32.0 °F 100% 29.97 in 10.0 mi NNW 9.2 mph - N/A Rain Light Rain
4:44 AM 32.0 °F 24.8 °F 32.0 °F 100% 29.97 in 9.0 mi NNW 8.1 mph - N/A Snow Light Snow
4:49 AM 32.0 °F 23.6 °F 32.0 °F 100% 29.97 in 6.0 mi NNW 10.4 mph - N/A Snow Light Snow
4:58 AM 33.1 °F 24.9 °F 31.1 °F 92% 29.92 in 6.0 mi NNW 10.4 mph - 0.00 in Snow Light Snow
5:03 AM 32.0 °F 25.6 °F 32.0 °F 100% 29.98 in 10.0 mi NNW 6.9 mph - N/A Rain Light Rain
5:08 AM 32.0 °F 26.4 °F 32.0 °F 100% 29.98 in 10.0 mi NW 5.8 mph - N/A Rain Light Rain
5:18 AM 32.0 °F 27.5 °F 32.0 °F 100% 29.99 in 8.0 mi NW 4.6 mph - N/A Snow Light Snow
5:28 AM 32.0 °F 26.4 °F 32.0 °F 100% 29.99 in 10.0 mi NNW 5.8 mph - N/A Rain Light Rain
5:29 AM 32.0 °F 26.4 °F 32.0 °F 100% 29.99 in 10.0 mi NNW 5.8 mph - N/A   Scattered Clouds
5:54 AM 32.0 °F 24.2 °F 32.0 °F 100% 30.00 in 10.0 mi NNW 9.2 mph - N/A   Mostly Cloudy
5:58 AM 32.7 °F 23.4 °F 31.6 °F 96% 29.96 in 10.0 mi NNW 12.7 mph - 0.00 in   Mostly Cloudy
6:02 AM 32.0 °F 23.6 °F 32.0 °F 100% 30.01 in 10.0 mi NNW 10.4 mph - N/A Rain Light Rain
6:07 AM 32.0 °F 23.0 °F 32.0 °F 100% 30.02 in 9.0 mi NNW 11.5 mph - N/A Rain Light Rain
6:12 AM 32.0 °F 24.2 °F 32.0 °F 100% 30.02 in 6.0 mi NNW 9.2 mph - N/A Rain Light Rain
6:22 AM 32.0 °F 25.6 °F 32.0 °F 100% 30.02 in 9.0 mi North 6.9 mph - N/A Rain Light Rain
6:26 AM 32.0 °F 25.6 °F 32.0 °F 100% 30.02 in 10.0 mi North 6.9 mph - N/A   Partly Cloudy
6:58 AM 30.0 °F 23.2 °F 28.8 °F 95% 30.01 in 10.0 mi North 6.9 mph - 0.00 in   Clear
7:58 AM 30.0 °F 22.4 °F 27.5 °F 90% 30.06 in 10.0 mi NNW 8.1 mph - N/A   Partly Cloudy
8:58 AM 35.4 °F 26.8 °F 24.8 °F 65% 30.07 in 10.0 mi North 12.7 mph - N/A   Clear
9:58 AM 38.5 °F 30.7 °F 22.3 °F 52% 30.09 in 10.0 mi North 12.7 mph - N/A   Clear
10:32 AM 39.2 °F 30.8 °F 19.4 °F 45% 30.13 in 10.0 mi NNW 15.0 mph 20.7 mph N/A   Clear
10:58 AM 41.7 °F 32.6 °F 17.1 °F 37% 30.08 in 10.0 mi North 20.7 mph 24.2 mph N/A   Clear
11:58 AM 43.7 °F 37.3 °F 17.1 °F 34% 30.07 in 10.0 mi North 12.7 mph - N/A   Clear
12:07 PM 44.6 °F 37.2 °F 15.8 °F 31% 30.11 in 10.0 mi NW 17.3 mph 24.2 mph N/A   Clear
12:13 PM 44.6 °F 37.4 °F 15.8 °F 31% 30.11 in 10.0 mi North 16.1 mph 24.2 mph N/A   Clear
12:14 PM 44.6 °F 37.4 °F 15.8 °F 31% 30.11 in 10.0 mi North 16.1 mph 23.0 mph N/A   Clear
12:58 PM 44.8 °F 38.0 °F 13.5 °F 28% 30.05 in 10.0 mi NNW 15.0 mph 20.7 mph N/A   Clear
1:35 PM 46.4 °F 39.8 °F 14.0 °F 27% 30.07 in 10.0 mi NNW 16.1 mph 21.9 mph N/A   Clear
1:58 PM 46.9 °F - 13.3 °F 26% 30.01 in 10.0 mi NW 15.0 mph 20.7 mph N/A   Clear
2:58 PM 46.9 °F - 8.1 °F 21% 30.02 in 10.0 mi NNW 15.0 mph 20.7 mph N/A   Clear
3:08 PM 48.2 °F - 8.6 °F 20% 30.06 in 10.0 mi North 12.7 mph - N/A   Clear
3:58 PM 47.3 °F - 7.9 °F 20% 30.03 in 10.0 mi North 13.8 mph - N/A   Clear
4:58 PM 46.8 °F - 7.0 °F 20% 30.04 in 10.0 mi North 4.6 mph - N/A   Clear
5:58 PM 44.1 °F - 8.6 °F 24% 30.05 in 10.0 mi Calm Calm - N/A   Clear
6:58 PM 39.9 °F - 7.0 °F 26% 30.09 in 10.0 mi Calm Calm - N/A   Clear
7:58 PM 38.7 °F - 7.2 °F 27% 30.11 in 10.0 mi East 1.2 mph - N/A   Clear
8:58 PM 34.9 °F - 8.8 °F 34% 30.11 in 10.0 mi Calm Calm - N/A   Clear
9:58 PM 23.4 °F 17.4 °F 4.1 °F 44% 30.15 in 10.0 mi NE 4.6 mph - N/A   Clear
10:58 PM 22.8 °F 16.7 °F 5.9 °F 48% 30.16 in 10.0 mi North 4.6 mph - N/A   Clear
11:58 PM 22.8 °F 14.5 °F 6.4 °F 50% 30.15 in 10.0 mi NE 6.9 mph - N/A   Clear